Time,TemperatureF,DewpointF,PressureIn,WindDirection,WindDirectionDegrees,WindSpeedMPH,WindSpeedGustMPH,Humidity,HourlyPrecipIn,Conditions,Clouds,dailyrainin,SoftwareType,DateUTC
2013-06-04 00:03:00,61.0,60.0,29.15,North,0,0.0,0.0,97,0.00,,,0.00,,2013-06-04 04:03:00,
2013-06-04 00:13:00,61.0,60.0,29.15,North,0,0.0,0.0,97,0.00,,,0.00,,2013-06-04 04:13:00,
2013-06-04 00:23:00,61.0,60.0,29.15,North,0,0.0,0.0,98,0.00,,,0.00,,2013-06-04 04:23:00,
2013-06-04 00:33:00,60.0,59.0,29.15,North,0,0.0,0.0,98,0.00,,,0.00,,2013-06-04 04:33:00,
2013-06-04 00:42:00,60.0,59.0,29.15,North,0,0.0,0.0,98,0.00,,,0.00,,2013-06-04 04:42:00,
2013-06-04 00:53:00,60.0,59.0,29.15,North,0,0.0,0.0,98,0.00,,,0.00,,2013-06-04 04:53:00,
2013-06-04 01:02:00,60.0,59.0,29.15,North,0,0.0,0.0,98,0.00,,,0.00,,2013-06-04 05:02:00,
2013-06-04 01:12:00,60.0,59.0,29.15,North,0,0.0,0.0,98,0.00,,,0.00,,2013-06-04 05:12:00,
2013-06-04 01:22:00,59.0,58.0,29.15,North,0,0.0,0.0,98,0.00,,,0.00,,2013-06-04 05:22:00,
2013-06-04 01:32:00,59.0,58.0,29.15,North,0,0.0,0.0,98,0.00,,,0.00,,2013-06-04 05:32:00,
2013-06-04 01:42:00,59.0,58.0,29.15,North,0,0.0,0.0,98,0.00,,,0.00,,2013-06-04 05:42:00,
2013-06-04 01:52:00,58.0,57.0,29.15,North,0,0.0,0.0,98,0.00,,,0.00,,2013-06-04 05:52:00,
2013-06-04 02:02:00,58.0,57.0,29.15,North,0,0.0,0.0,98,0.00,,,0.00,,2013-06-04 06:02:00,
2013-06-04 02:12:00,58.0,57.0,29.15,North,0,0.0,0.0,98,0.00,,,0.00,,2013-06-04 06:12:00,
2013-06-04 02:22:00,58.0,57.0,29.15,North,0,0.0,0.0,98,0.00,,,0.00,,2013-06-04 06:22:00,
2013-06-04 02:32:00,57.0,56.0,29.15,North,0,0.0,0.0,98,0.00,,,0.00,,2013-06-04 06:32:00,
2013-06-04 02:42:00,57.0,56.0,29.15,North,0,0.0,0.0,98,0.00,,,0.00,,2013-06-04 06:42:00,
2013-06-04 02:52:00,57.0,56.0,29.15,North,0,0.0,0.0,98,0.00,,,0.00,,2013-06-04 06:52:00,
2013-06-04 03:02:00,57.0,56.0,29.15,North,0,0.0,0.0,98,0.00,,,0.00,,2013-06-04 07:02:00,
2013-06-04 03:13:00,57.0,56.0,29.15,North,0,0.0,0.0,98,0.00,,,0.00,,2013-06-04 07:13:00,
2013-06-04 03:22:00,57.0,56.0,29.15,North,0,0.0,0.0,98,0.00,,,0.00,,2013-06-04 07:22:00,
2013-06-04 03:32:00,57.0,56.0,29.15,North,0,0.0,0.0,98,0.00,,,0.00,,2013-06-04 07:32:00,
2013-06-04 03:42:00,57.0,56.0,29.15,North,0,0.0,0.0,98,0.00,,,0.00,,2013-06-04 07:42:00,
2013-06-04 03:52:00,57.0,56.0,29.15,North,0,0.0,0.0,98,0.00,,,0.00,,2013-06-04 07:52:00,
2013-06-04 04:02:00,57.0,56.0,29.15,North,0,0.0,0.0,98,0.00,,,0.00,,2013-06-04 08:02:00,
2013-06-04 04:12:00,57.0,56.0,29.15,North,0,0.0,0.0,98,0.00,,,0.00,,2013-06-04 08:12:00,
2013-06-04 04:32:00,55.0,54.0,29.15,North,0,0.0,0.0,98,0.00,,,0.00,,2013-06-04 08:32:00,
2013-06-04 04:42:00,55.0,54.0,29.15,North,0,0.0,0.0,98,0.00,,,0.00,,2013-06-04 08:42:00,
2013-06-04 04:52:00,55.0,54.0,29.15,North,0,0.0,0.0,98,0.00,,,0.00,,2013-06-04 08:52:00,
2013-06-04 05:02:00,55.0,54.0,29.15,North,0,0.0,0.0,98,0.00,,,0.00,,2013-06-04 09:02:00,
2013-06-04 05:12:00,55.0,54.0,29.15,North,0,0.0,0.0,98,0.00,,,0.00,,2013-06-04 09:12:00,
2013-06-04 05:22:00,55.0,54.0,29.15,North,0,0.0,0.0,98,0.00,,,0.00,,2013-06-04 09:22:00,
2013-06-04 05:33:00,55.0,54.0,29.15,North,0,0.0,0.0,98,0.00,,,0.00,,2013-06-04 09:33:00,
2013-06-04 05:43:00,55.0,54.0,29.15,North,0,0.0,0.0,98,0.00,,,0.00,,2013-06-04 09:43:00,
2013-06-04 05:53:00,55.0,54.0,29.15,North,0,0.0,0.0,98,0.00,,,0.00,,2013-06-04 09:53:00,
2013-06-04 06:03:00,54.0,53.0,29.15,North,0,0.0,0.0,98,0.00,,,0.00,,2013-06-04 10:03:00,
2013-06-04 06:12:00,54.0,53.0,29.15,North,0,0.0,0.0,98,0.00,,,0.00,,2013-06-04 10:12:00,
2013-06-04 06:23:00,54.0,53.0,29.15,North,0,0.0,0.0,98,0.00,,,0.00,,2013-06-04 10:23:00,
2013-06-04 06:33:00,54.0,53.0,29.18,North,0,0.0,0.0,98,0.00,,,0.00,,2013-06-04 10:33:00,
2013-06-04 06:42:00,54.0,53.0,29.18,North,0,0.0,0.0,98,0.00,,,0.00,,2013-06-04 10:42:00,
2013-06-04 06:52:00,54.0,53.0,29.18,North,0,0.0,0.0,98,0.00,,,0.00,,2013-06-04 10:52:00,
2013-06-04 07:02:00,54.0,53.0,29.18,North,0,0.0,0.0,98,0.00,,,0.00,,2013-06-04 11:02:00,
2013-06-04 07:12:00,54.0,53.0,29.18,North,0,0.0,0.0,98,0.00,,,0.00,,2013-06-04 11:12:00,
2013-06-04 07:22:00,55.0,54.0,29.18,North,0,0.0,0.0,98,0.00,,,0.00,,2013-06-04 11:22:00,
2013-06-04 07:32:00,56.0,55.0,29.18,North,0,0.0,0.0,98,0.00,,,0.00,,2013-06-04 11:32:00,
2013-06-04 07:42:00,56.0,55.0,29.18,North,0,0.0,0.0,98,0.00,,,0.00,,2013-06-04 11:42:00,
2013-06-04 07:52:00,56.0,55.0,29.18,North,0,0.0,0.0,98,0.00,,,0.00,,2013-06-04 11:52:00,
2013-06-04 08:02:00,64.0,63.0,29.18,North,0,0.0,0.0,98,0.00,,,0.00,,2013-06-04 12:02:00,
2013-06-04 08:12:00,64.0,63.0,29.18,North,0,0.0,0.0,98,0.00,,,0.00,,2013-06-04 12:12:00,
2013-06-04 08:22:00,67.0,65.0,29.18,North,0,0.0,0.0,93,0.00,,,0.00,,2013-06-04 12:22:00,
2013-06-04 08:32:00,67.0,65.0,29.18,North,0,0.0,0.0,93,0.00,,,0.00,,2013-06-04 12:32:00,
2013-06-04 08:42:00,67.0,65.0,29.18,North,0,0.0,0.0,93,0.00,,,0.00,,2013-06-04 12:42:00,
2013-06-04 08:52:00,82.0,58.0,29.18,North,0,0.0,0.0,44,0.00,,,0.00,,2013-06-04 12:52:00,
2013-06-04 09:03:00,85.0,58.0,29.21,North,0,0.0,0.0,40,0.00,,,0.00,,2013-06-04 13:03:00,
2013-06-04 09:12:00,85.0,58.0,29.21,North,0,0.0,0.0,40,0.00,,,0.00,,2013-06-04 13:12:00,
2013-06-04 09:22:00,85.0,58.0,29.21,North,0,0.0,0.0,40,0.00,,,0.00,,2013-06-04 13:22:00,
2013-06-04 09:32:00,85.0,58.0,29.21,North,0,0.0,0.0,40,0.00,,,0.00,,2013-06-04 13:32:00,
2013-06-04 09:42:00,85.0,58.0,29.21,North,0,0.0,0.0,40,0.00,,,0.00,,2013-06-04 13:42:00,
2013-06-04 09:52:00,84.0,55.0,29.21,North,0,0.0,0.0,37,0.00,,,0.00,,2013-06-04 13:52:00,
2013-06-04 10:02:00,86.0,57.0,29.21,North,0,0.0,0.0,38,0.00,,,0.00,,2013-06-04 14:02:00,
2013-06-04 10:12:00,86.0,57.0,29.21,North,0,0.0,0.0,38,0.00,,,0.00,,2013-06-04 14:12:00,
2013-06-04 10:22:00,88.0,58.0,29.21,North,0,0.0,4.0,37,0.00,,,0.00,,2013-06-04 14:22:00,
2013-06-04 10:32:00,89.0,59.0,29.21,North,0,0.0,4.0,36,0.00,,,0.00,,2013-06-04 14:32:00,
2013-06-04 10:42:00,89.0,59.0,29.21,North,0,0.0,4.0,36,0.00,,,0.00,,2013-06-04 14:42:00,
2013-06-04 10:52:00,92.0,60.0,29.21,North,0,0.0,4.0,35,0.00,,,0.00,,2013-06-04 14:52:00,
2013-06-04 11:02:00,95.0,61.0,29.21,East,79,3.0,5.0,33,0.00,,,0.00,,2013-06-04 15:02:00,
2013-06-04 11:12:00,95.0,61.0,29.21,East,79,3.0,5.0,33,0.00,,,0.00,,2013-06-04 15:12:00,
2013-06-04 11:22:00,88.0,58.0,29.21,West,278,3.0,4.0,37,0.00,,,0.00,,2013-06-04 15:22:00,
2013-06-04 11:33:00,88.0,58.0,29.21,West,278,3.0,4.0,37,0.00,,,0.00,,2013-06-04 15:33:00,
2013-06-04 11:42:00,88.0,58.0,29.21,West,278,3.0,4.0,37,0.00,,,0.00,,2013-06-04 15:42:00,
2013-06-04 11:53:00,78.0,57.0,29.21,West,280,4.0,7.0,49,0.00,,,0.00,,2013-06-04 15:53:00,
2013-06-04 12:03:00,79.0,59.0,29.21,WNW,299,3.0,4.0,50,0.00,,,0.00,,2013-06-04 16:03:00,
2013-06-04 12:13:00,79.0,59.0,29.21,WNW,299,3.0,4.0,50,0.00,,,0.00,,2013-06-04 16:13:00,
2013-06-04 12:23:00,79.0,59.0,29.21,WNW,299,3.0,4.0,50,0.00,,,0.00,,2013-06-04 16:23:00,
2013-06-04 12:33:00,79.0,59.0,29.21,WNW,299,3.0,4.0,50,0.00,,,0.00,,2013-06-04 16:33:00,
2013-06-04 12:42:00,79.0,59.0,29.21,WNW,299,3.0,4.0,50,0.00,,,0.00,,2013-06-04 16:42:00,
2013-06-04 13:03:00,78.0,57.0,29.18,North,0,0.0,4.0,48,0.00,,,0.00,,2013-06-04 17:03:00,
2013-06-04 13:12:00,78.0,57.0,29.18,North,0,0.0,4.0,48,0.00,,,0.00,,2013-06-04 17:12:00,
2013-06-04 13:23:00,79.0,58.0,29.18,North,0,0.0,3.0,48,0.00,,,0.00,,2013-06-04 17:23:00,
2013-06-04 13:33:00,81.0,58.0,29.18,North,0,0.0,4.0,46,0.00,,,0.00,,2013-06-04 17:33:00,
2013-06-04 13:42:00,81.0,58.0,29.18,North,0,0.0,4.0,46,0.00,,,0.00,,2013-06-04 17:42:00,
2013-06-04 13:52:00,81.0,58.0,29.18,North,0,0.0,4.0,46,0.00,,,0.00,,2013-06-04 17:52:00,
2013-06-04 14:02:00,82.0,58.0,29.18,North,0,0.0,4.0,44,0.00,,,0.00,,2013-06-04 18:02:00,
2013-06-04 14:12:00,82.0,58.0,29.18,North,0,0.0,4.0,44,0.00,,,0.00,,2013-06-04 18:12:00,
2013-06-04 14:22:00,82.0,57.0,29.18,North,0,0.0,8.0,42,0.00,,,0.00,,2013-06-04 18:22:00,
2013-06-04 14:32:00,82.0,57.0,29.18,NW,305,3.0,8.0,42,0.00,,,0.00,,2013-06-04 18:32:00,
2013-06-04 14:42:00,82.0,57.0,29.18,NW,305,3.0,8.0,42,0.00,,,0.00,,2013-06-04 18:42:00,
2013-06-04 14:52:00,81.0,55.0,29.18,WNW,295,3.0,7.0,41,0.00,,,0.00,,2013-06-04 18:52:00,
2013-06-04 15:02:00,84.0,56.0,29.18,ENE,66,4.0,5.0,39,0.00,,,0.00,,2013-06-04 19:02:00,
2013-06-04 15:12:00,84.0,56.0,29.18,ENE,66,4.0,5.0,39,0.00,,,0.00,,2013-06-04 19:12:00,
2013-06-04 15:22:00,84.0,56.0,29.18,NE,48,4.0,6.0,38,0.00,,,0.00,,2013-06-04 19:22:00,
2013-06-04 15:33:00,85.0,54.0,29.18,North,0,0.0,7.0,35,0.00,,,0.00,,2013-06-04 19:33:00,
2013-06-04 15:42:00,85.0,54.0,29.18,North,0,0.0,7.0,35,0.00,,,0.00,,2013-06-04 19:42:00,
2013-06-04 15:52:00,85.0,57.0,29.18,ENE,72,4.0,7.0,39,0.00,,,0.00,,2013-06-04 19:52:00,
2013-06-04 16:03:00,84.0,55.0,29.15,NE,38,3.0,7.0,37,0.00,,,0.00,,2013-06-04 20:03:00,
2013-06-04 16:12:00,84.0,55.0,29.15,NE,38,3.0,7.0,37,0.00,,,0.00,,2013-06-04 20:12:00,
2013-06-04 16:22:00,85.0,55.0,29.15,ENE,76,4.0,7.0,36,0.00,,,0.00,,2013-06-04 20:22:00,
2013-06-04 16:32:00,83.0,56.0,29.15,East,79,5.0,7.0,40,0.00,,,0.00,,2013-06-04 20:32:00,
2013-06-04 16:42:00,83.0,56.0,29.15,East,79,5.0,7.0,40,0.00,,,0.00,,2013-06-04 20:42:00,
2013-06-04 16:52:00,83.0,55.0,29.15,East,87,5.0,5.0,39,0.00,,,0.00,,2013-06-04 20:52:00,
2013-06-04 17:02:00,83.0,55.0,29.15,ENE,71,5.0,6.0,39,0.00,,,0.00,,2013-06-04 21:02:00,
2013-06-04 17:12:00,83.0,55.0,29.15,ENE,71,5.0,6.0,39,0.00,,,0.00,,2013-06-04 21:12:00,
2013-06-04 17:22:00,81.0,54.0,29.15,North,0,0.0,0.0,39,0.00,,,0.00,,2013-06-04 21:22:00,
2013-06-04 17:33:00,81.0,54.0,29.15,North,0,0.0,0.0,39,0.00,,,0.00,,2013-06-04 21:33:00,
2013-06-04 17:42:00,81.0,54.0,29.15,North,0,0.0,0.0,39,0.00,,,0.00,,2013-06-04 21:42:00,
2013-06-04 17:53:00,82.0,56.0,29.15,ENE,78,4.0,5.0,41,0.00,,,0.00,,2013-06-04 21:53:00,
2013-06-04 18:02:00,82.0,56.0,29.15,ENE,78,4.0,5.0,41,0.00,,,0.00,,2013-06-04 22:02:00,
2013-06-04 18:13:00,82.0,56.0,29.15,ENE,78,4.0,5.0,41,0.00,,,0.00,,2013-06-04 22:13:00,
2013-06-04 18:22:00,79.0,55.0,29.15,ENE,75,5.0,7.0,44,0.00,,,0.00,,2013-06-04 22:22:00,
2013-06-04 18:33:00,79.0,55.0,29.15,ENE,75,5.0,7.0,44,0.00,,,0.00,,2013-06-04 22:33:00,
2013-06-04 18:42:00,79.0,55.0,29.15,ENE,75,5.0,7.0,44,0.00,,,0.00,,2013-06-04 22:42:00,
2013-06-04 18:52:00,78.0,53.0,29.15,North,0,0.0,0.0,42,0.00,,,0.00,,2013-06-04 22:52:00,
2013-06-04 19:02:00,78.0,55.0,29.12,North,0,0.0,0.0,45,0.00,,,0.00,,2013-06-04 23:02:00,
2013-06-04 19:12:00,78.0,55.0,29.12,North,0,0.0,0.0,45,0.00,,,0.00,,2013-06-04 23:12:00,
2013-06-04 19:22:00,77.0,55.0,29.12,North,0,0.0,0.0,46,0.00,,,0.00,,2013-06-04 23:22:00,
2013-06-04 19:32:00,76.0,55.0,29.12,North,0,0.0,0.0,49,0.00,,,0.00,,2013-06-04 23:32:00,
2013-06-04 19:42:00,76.0,55.0,29.12,North,0,0.0,0.0,49,0.00,,,0.00,,2013-06-04 23:42:00,
2013-06-04 19:52:00,76.0,54.0,29.12,North,0,0.0,0.0,47,0.00,,,0.00,,2013-06-04 23:52:00,
2013-06-04 20:02:00,74.0,56.0,29.12,North,0,0.0,0.0,54,0.00,,,0.00,,2013-06-05 00:02:00,
2013-06-04 20:12:00,74.0,56.0,29.12,North,0,0.0,0.0,54,0.00,,,0.00,,2013-06-05 00:12:00,
2013-06-04 20:22:00,74.0,60.0,29.12,North,0,0.0,0.0,61,0.00,,,0.00,,2013-06-05 00:22:00,
2013-06-04 20:33:00,71.0,60.0,29.15,North,0,0.0,0.0,68,0.00,,,0.00,,2013-06-05 00:33:00,
2013-06-04 20:42:00,71.0,60.0,29.15,North,0,0.0,0.0,68,0.00,,,0.00,,2013-06-05 00:42:00,
2013-06-04 20:52:00,71.0,61.0,29.15,North,0,0.0,0.0,71,0.00,,,0.00,,2013-06-05 00:52:00,
2013-06-04 21:02:00,71.0,61.0,29.15,North,0,0.0,0.0,71,0.00,,,0.00,,2013-06-05 01:02:00,
2013-06-04 21:12:00,71.0,61.0,29.15,North,0,0.0,0.0,71,0.00,,,0.00,,2013-06-05 01:12:00,
2013-06-04 21:22:00,68.0,61.0,29.15,North,0,0.0,0.0,77,0.00,,,0.00,,2013-06-05 01:22:00,
2013-06-04 21:32:00,66.0,60.0,29.15,North,0,0.0,0.0,82,0.00,,,0.00,,2013-06-05 01:32:00,
2013-06-04 21:42:00,66.0,60.0,29.15,North,0,0.0,0.0,82,0.00,,,0.00,,2013-06-05 01:42:00,
2013-06-04 21:52:00,66.0,60.0,29.15,North,0,0.0,0.0,82,0.00,,,0.00,,2013-06-05 01:52:00,
2013-06-04 22:02:00,66.0,60.0,29.15,North,0,0.0,0.0,82,0.00,,,0.00,,2013-06-05 02:02:00,
2013-06-04 22:12:00,66.0,60.0,29.15,North,0,0.0,0.0,82,0.00,,,0.00,,2013-06-05 02:12:00,
2013-06-04 22:22:00,64.0,61.0,29.15,North,0,0.0,0.0,89,0.00,,,0.00,,2013-06-05 02:22:00,
2013-06-04 22:32:00,63.0,60.0,29.18,North,0,0.0,0.0,90,0.00,,,0.00,,2013-06-05 02:32:00,
2013-06-04 22:42:00,63.0,60.0,29.18,North,0,0.0,0.0,91,0.00,,,0.00,,2013-06-05 02:42:00,
2013-06-04 22:52:00,63.0,60.0,29.18,North,0,0.0,0.0,91,0.00,,,0.00,,2013-06-05 02:52:00,
2013-06-04 23:02:00,63.0,60.0,29.18,North,0,0.0,0.0,91,0.00,,,0.00,,2013-06-05 03:02:00,
2013-06-04 23:12:00,63.0,60.0,29.18,North,0,0.0,0.0,91,0.00,,,0.00,,2013-06-05 03:12:00,
2013-06-04 23:22:00,62.0,60.0,29.18,North,0,0.0,0.0,93,0.00,,,0.00,,2013-06-05 03:22:00,
2013-06-04 23:33:00,62.0,60.0,29.18,North,0,0.0,0.0,94,0.00,,,0.00,,2013-06-05 03:33:00,
2013-06-04 23:43:00,62.0,60.0,29.18,North,0,0.0,0.0,94,0.00,,,0.00,,2013-06-05 03:43:00,
2013-06-04 23:53:00,62.0,61.0,29.18,North,0,0.0,0.0,96,0.00,,,0.00,,2013-06-05 03:53:00,